AirNav   Pilot Hours Calculator
 
 1660 users online  

99F El Reno Airport
El Reno, Oklahoma, USA

GOING TO EL RENO?


FAA INFORMATION EFFECTIVE 07 NOVEMBER 2019

Location

FAA Identifier: 99F
Lat/Long: 35-31-00.1870N 097-58-46.1790W
35-31.003117N 097-58.769650W
35.5167186,-97.9794942
(estimated)
Elevation: 1395 ft. / 425 m (estimated)
Variation: 07E (1985)
From city: 2 miles SW of EL RENO, OK
Time zone: UTC -6 (UTC -5 during Daylight Saving Time)
Zip code: 73036

Airport Operations

Airport use: Open to the public
Activation date: 02/1945
Control tower: no
ARTCC: FORT WORTH CENTER
FSS: MC ALESTER FLIGHT SERVICE STATION
NOTAMs facility: MLC (NOTAM-D service available)
Attendance: MON-FRI 0800-1700
Wind indicator: no
Segmented circle: no

Airport Communications

CTAF: 122.9
WX AWOS-3 at RQO (2.9 nm SW): 118.475 (405-262-0087)
WX AWOS-3 at RCE (8 nm E): 125.05 (405-354-2617)
WX AWOS-3 at HSD (14 nm E): 120.975 (405-283-9848)
WX ASOS at PWA (16 nm E): PHONE 405-798-2013
WX ASOS at OKC (20 nm E): PHONE 405-686-4711

Nearby radio navigation aids

VOR radial/distance  VOR name  Freq  Var
PWAr259/16.3WILEY POST VOR/DME113.4008E
IFIr167/17.4KINGFISHER VORTAC114.7009E
IRWr291/20.4WILL ROGERS VORTAC114.1007E

Airport Services

Airframe service: NONE
Powerplant service: NONE
Bottled oxygen: NONE
Bulk oxygen: NONE

Runway Information

Runway 17/35

Dimensions: 2600 x 100 ft. / 792 x 30 m
Surface: turf, in fair condition
RUNWAY 17  RUNWAY 35
Traffic pattern: rightleft
Obstructions: 26 ft. tree, 85 ft. from runway, 50 ft. right of centerline, 3:1 slope to clear18 ft. bldg, 150 ft. from runway, 8:1 slope to clear

Airport Ownership and Management from official FAA records

Ownership: Privately-owned
Owner: MARSHALL GIBSON
1821 W ELM
EL RENO, OK 73036
Phone 405-262-4880
AND MARK GIBSON.
Manager: MARSHALL GIBSON
PO BOX 880
EL RENO, OK 73036
Phone 405-262-4880
AND J. MARSHALL GIBSON AVIATION PRES.

Airport Operational Statistics

Aircraft operations: 10/year *
100% transient general aviation
* for 12-month period ending 14 November 2018

Additional Remarks

FOR CD CTC OKE CITY APCH AT 405-681-5683.

Instrument Procedures

There are no published instrument procedures at 99F.

Some nearby airports with instrument procedures:

KRQO - El Reno Regional Airport (3 nm SW)
KRCE - Clarence E Page Municipal Airport (8 nm E)
KHSD - Sundance Airport (14 nm E)
KPWA - Wiley Post Airport (16 nm E)
2O8 - Hinton Municipal Airport (18 nm W)
KOKC - Will Rogers World Airport (20 nm E)
 
Loc | Ops | Rwys | IFR | FBO | Links
Com | Nav | Svcs | Stats | Notes
Area around 99F (El Reno Airport)
 
Road maps at: MapQuest Bing Google
 
Aerial photo
WARNING: Photo may not be current or correct
Aerial photo of 99F (El Reno Airport)
The airport is difficult to see. It is located between the plowed field and the white (long) shed/building

Do you have a better or more recent aerial photo of El Reno Airport that you would like to share? If so, please send us your photo.

 
Sectional chart

 
Airport distance calculator
Flying to El Reno Airport? Find the distance to fly.

From to 99F

Sunrise and sunset
Times for 20-Nov-2019
 Local
(UTC-6)
 Zulu
(UTC)
Morning civil twilight06:4612:46
Sunrise07:1313:13
Sunset17:2223:22
Evening civil twilight17:4923:49

Current date and time
Zulu (UTC)  20-Nov-2019 15:27:01
Local (UTC-6)  20-Nov-2019 09:27:01
 
METAR
KRQO 
3nm SW 
201515Z AUTO 17020G27KT 10SM OVC012 16/13 A2986 RMK AO2 T01570134
KRCE 
8nm E 
201515Z AUTO 18022G31KT 10SM 16/13 A2984 RMK AO2
KHSD 
14nm E 
201515Z AUTO 18021KT 10SM SCT016 16/14 A2984 RMK A01
KPWA 
16nm E 
201453Z 18017G25KT 10SM BKN014 16/13 A2985 RMK AO2 PK WND 17027/1409 RAE30 SLP098 P0000 60000 T01610133 53004
TAF
KOKC 
20nm SE 
201139Z 2012/2112 17014G22KT P6SM OVC200 WS015/20050KT FM201400 17020G30KT P6SM OVC015 FM202000 18018G28KT P6SM VCSH OVC025 TEMPO 2020/2024 5SM -SHRA FM210000 17018G28KT 4SM -SHRA OVC015 FM210500 20016G22KT P6SM BKN025
NOTAMs
Click for the latest NOTAMs
NOTAMs are issued by the DoD/FAA and will open in a separate window not controlled by AirNav.

 

 
 

Would you like to see your business listed on this page?

 If your business provides an interesting product or service to pilots, flight crews, aircraft, or users of the El Reno Airport, you should consider listing it here.  To start the listing process, click on the button below
 
Add a business
 

Other Pages about El Reno Airport

Update a link
 
Copyright © AirNav, LLC. All rights reserved. Privacy Policy  Contact